Temperature
21 19 19 19 19 20 19 19 19 19 20 19 18 18 18 18 17 17 17 18 18 18 19 18 18 18 17 17 17 17 16 16 16 16 16 15 15 15 15 15 15 15 14 14
19 19 20 20 20 19 20 19 19 19 20 19 17 17 18 17 17 17 18 18 18 18 18 18 18 18 18 17 17 17 16 16 16 16 16 15 15 15 15 15 14 14 14 14
20 20 21 21 20 20 20 19 19 19 19 19 18 18 17 17 17 18 18 18 18 19 19 18 18 18 18 17 17 17 16 16 16 15 15 15 15 15 15 15 14 14 14 14
20 20 21 21 20 20 19 20 20 20 18 17 18 17 17 17 16 17 17 18 18 19 19 19 18 18 18 17 17 17 16 16 16 15 15 15 15 15 15 15 14 14 14 14
20 20 21 20 21 21 20 20 19 19 18 17 17 17 16 16 17 17 17 18 18 19 19 19 18 18 18 17 17 17 16 16 16 15 15 15 15 15 15 14 14 14 14 14
20 20 21 21 21 21 20 19 18 16 16 17 17 17 16 16 17 17 17 18 18 19 19 19 18 18 18 17 17 17 16 16 16 15 15 15 15 15 15 15 14 14 14 14
20 20 21 21 21 20 19 18 17 17 16 16 17 17 16 17 17 17 17 18 19 19 19 18 18 18 18 17 17 17 16 16 16 16 15 15 15 15 15 15 14 14 14 14
19 18 20 20 20 19 19 18 17 17 16 16 16 16 17 18 18 18 18 19 19 19 19 18 18 18 18 18 17 17 16 16 16 16 15 15 15 15 15 14 14 14 14 14
18 18 20 20 20 19 18 17 17 16 16 16 16 16 17 18 18 18 18 18 18 19 19 18 18 18 18 18 17 17 16 16 16 16 15 15 15 15 15 14 14 14 14 14
18 18 19 19 20 19 18 16 15 16 16 16 16 16 16 17 17 17 16 17 18 18 18 18 18 18 18 17 17 17 16 16 16 16 15 15 15 15 15 14 14 14 14 14
18 18 18 19 19 19 18 17 15 14 15 15 16 16 17 17 17 16 16 18 18 18 18 18 18 18 18 17 17 17 16 16 16 16 15 15 15 15 15 14 14 14 14 14
16 15 16 18 18 18 18 17 15 16 16 14 14 15 17 16 16 16 17 18 18 18 18 18 18 17 17 17 17 16 16 16 16 16 15 15 15 15 15 14 14 14 14 14
16 15 16 17 17 18 18 17 16 15 14 13 14 16 16 16 16 17 17 18 18 18 18 18 17 17 17 17 17 16 16 16 15 15 15 15 15 15 15 14 14 14 14 14
16 15 16 17 17 17 17 17 16 15 14 14 14 15 16 16 15 16 17 17 18 18 18 17 17 17 17 16 16 16 16 15 15 15 15 15 15 14 14 14 14 14 14 14
15 15 16 16 17 17 17 17 16 16 15 15 15 15 16 16 15 16 17 17 17 17 17 17 17 17 17 16 16 16 16 15 15 15 15 15 14 14 14 14 14 14 14 14
14 15 16 16 17 16 16 16 16 16 16 15 15 15 16 16 16 16 16 17 17 17 17 17 17 17 17 16 16 16 16 15 15 15 15 14 14 14 14 14 14 14 13 13
13 14 15 15 16 17 16 16 16 16 16 16 16 16 15 14 15 15 16 17 17 18 18 17 17 17 17 17 16 16 16 15 15 15 14 14 14 14 14 14 14 14 13 13
13 13 12 13 15 16 16 16 16 16 16 16 16 15 15 15 16 16 17 17 17 18 18 17 17 17 17 16 16 15 15 15 15 14 14 14 14 14 13 13 13 13 13 13
12 13 12 12 14 15 15 16 16 16 16 16 15 15 15 15 15 16 17 17 17 17 17 17 17 17 16 16 16 15 15 15 14 14 14 14 13 13 13 13 13 13 13 13
11 12 12 12 14 15 16 17 17 17 16 16 16 15 15 15 14 15 17 17 17 17 17 17 16 16 16 16 15 15 14 14 14 14 14 13 13 13 13 13 13 12 12 12
13 12 12 12 13 14 15 16 17 16 16 17 17 16 15 15 16 17 17 17 17 17 16 16 16 16 16 15 15 14 14 14 14 13 13 13 13 13 13 12 12 12 12 12
12 12 11 11 13 14 15 15 15 15 17 17 17 17 16 17 17 17 17 17 16 16 16 16 16 15 15 15 14 14 14 14 13 13 13 13 13 12 12 12 12 12 12 12
12 12 12 12 14 15 15 16 17 17 17 17 17 17 16 16 16 16 16 16 16 16 16 15 15 15 14 14 14 14 13 13 13 13 12 12 12 12 12 12 12 12 11 11
11 11 11 11 12 14 15 16 16 17 17 17 17 16 16 16 16 16 16 16 15 15 15 15 15 14 14 14 13 13 13 12 12 12 12 12 12 12 12 11 11 11 11 11
11 10 10 11 12 14 15 16 16 16 16 16 16 16 16 16 15 15 15 15 15 15 14 14 14 14 14 13 13 13 12 12 12 12 12 11 11 11 11 11 11 11 10 10
10 10 11 12 13 13 15 16 16 16 16 16 16 15 15 15 15 15 15 15 14 14 14 14 14 14 13 13 13 12 12 11 11 11 11 11 11 11 11 10 10 10 10 10
Wind_Speed
3 4 2 5 6 4 3 3 4 5 3 4 6 7 8 3 5 6 6 6 6 7 4 2 3 3 4 3 3 3 3 3 3 2 2 2 1 1 2 3 4 4 4 5
5 2 5 3 4 4 3 3 4 4 1 3 3 5 6 3 4 7 8 8 7 5 2 2 3 4 4 5 4 4 4 3 3 2 2 2 1 1 1 2 3 3 3 4
4 5 1 2 2 3 3 5 5 4 2 3 1 5 5 4 2 3 5 6 6 7 6 5 4 4 4 4 5 5 4 4 3 3 3 3 3 2 2 2 2 2 2 2
3 3 1 1 2 4 4 4 4 2 1 3 1 4 7 4 4 4 5 5 6 6 6 5 5 5 5 5 4 4 4 3 3 3 4 4 3 1 1 1 0 1 2 2
3 1 1 2 4 4 4 0 1 1 2 1 1 1 8 3 4 6 6 7 7 7 7 7 7 7 5 5 4 4 3 3 2 3 4 4 3 2 1 0 1 1 1 1
3 2 3 4 2 2 2 5 5 5 4 1 2 3 6 4 5 5 4 6 6 6 6 6 5 5 4 4 4 4 3 2 2 3 3 4 4 3 2 1 1 0 1 1
3 3 2 2 2 3 5 5 4 5 4 4 2 2 7 6 5 5 6 5 6 6 6 5 6 6 6 6 5 4 4 3 2 3 3 4 4 4 4 3 3 2 1 1
1 5 3 1 4 4 3 6 5 3 4 5 3 4 6 6 5 3 2 3 4 5 5 6 7 7 7 7 6 5 5 4 3 3 3 3 3 3 3 4 3 4 3 3
5 5 4 2 2 7 5 3 5 5 2 2 5 6 7 3 3 3 2 1 3 5 5 6 6 6 6 6 6 6 6 5 5 5 4 3 3 3 4 3 3 3 3 3
6 4 4 2 4 3 4 7 5 4 2 3 5 4 4 6 5 4 3 3 3 4 4 5 6 6 6 6 5 4 5 6 5 5 4 3 3 3 3 3 3 3 3 3
4 4 3 1 3 4 3 4 5 4 4 4 3 6 5 6 5 5 5 4 4 3 5 5 5 5 5 5 4 5 4 4 4 4 4 3 3 3 2 3 4 4 3 3
4 4 3 5 3 3 4 6 7 4 4 4 3 7 5 5 4 4 5 4 3 3 3 3 4 4 4 5 5 5 4 4 4 4 3 3 3 2 2 3 3 3 3 3
5 5 1 5 4 1 1 3 5 5 4 5 4 7 4 2 2 3 4 3 2 2 2 2 2 3 4 5 4 4 4 4 4 3 3 3 3 3 3 3 3 3 3 3
5 4 6 7 7 4 3 3 5 6 4 5 8 8 8 6 5 5 3 3 2 2 2 3 3 4 4 4 4 4 4 4 3 3 3 4 4 4 4 3 3 3 3 3
4 4 5 6 5 3 5 5 6 7 8 8 8 8 10 7 6 5 3 2 1 1 2 3 4 4 3 3 3 3 3 3 3 3 4 4 4 3 3 3 3 2 2 3
3 3 2 3 3 3 4 6 6 7 6 6 6 8 7 4 2 2 3 3 2 3 3 3 3 3 4 4 4 3 3 3 3 4 4 3 3 3 3 3 3 2 3 2
2 4 3 4 4 1 5 7 7 6 6 7 9 9 4 2 4 5 5 4 5 4 4 4 4 5 5 5 5 4 4 3 3 3 3 3 3 3 3 3 2 3 3 3
6 5 3 2 0 6 7 3 6 6 6 7 6 5 5 6 4 4 4 5 5 4 4 4 4 4 4 3 3 3 2 2 3 2 3 3 4 4 3 2 3 3 3 3
6 7 4 3 4 7 7 4 5 5 6 6 7 5 4 2 2 3 4 5 5 5 4 4 4 3 2 2 2 2 2 1 1 2 3 3 4 4 3 3 3 3 2 3
3 4 5 4 4 6 7 5 3 3 5 6 6 6 5 4 1 5 4 3 3 2 1 1 1 2 2 2 3 3 2 2 3 4 4 3 3 4 4 4 3 2 2 3
3 2 4 5 6 8 7 4 4 4 7 4 5 6 6 7 7 4 2 2 2 2 1 1 2 2 2 2 3 3 2 4 5 3 2 2 3 4 4 3 2 3 2 2
7 5 6 5 5 8 3 4 6 6 3 2 3 4 5 5 3 2 2 3 2 1 1 2 2 1 1 2 4 3 4 4 2 1 1 1 2 3 3 3 2 3 3 3
7 8 6 8 8 5 3 4 3 2 2 2 2 2 3 3 3 3 3 3 2 2 2 2 2 2 0 2 3 4 3 1 1 1 1 2 1 2 2 3 3 2 3 3
4 2 3 4 7 6 5 4 2 2 3 2 2 2 2 3 4 3 3 3 2 2 2 2 3 2 1 2 2 2 1 1 2 2 2 2 2 2 2 3 3 3 3 3
5 4 3 5 6 5 5 4 4 2 2 1 1 1 2 3 3 4 4 4 4 2 2 3 3 3 3 2 2 1 1 2 2 2 2 2 2 2 2 3 3 4 4 4
6 6 7 8 7 6 7 5 4 4 4 3 2 2 2 3 4 4 4 4 4 3 2 2 2 2 2 2 2 2 2 3 3 2 2 2 2 2 2 2 1 2 3 3
Wind_Direction
41 73 200 217 197 191 186 213 258 264 226 173 217 249 268 237 206 217 220 221 226 235 248 213 180 163 156 158 157 148 141 139 123 101 96 86 61 24 35 47 62 78 92 99
40 287 241 207 178 170 198 239 265 290 302 177 240 269 271 239 217 217 213 215 219 223 223 199 174 162 168 174 174 163 163 162 151 144 136 123 124 86 62 39 53 66 93 104
191 241 211 147 160 175 232 212 231 247 359 43 2 316 296 279 250 229 215 213 210 208 206 201 184 179 169 179 186 184 182 176 164 144 115 87 61 42 36 28 25 28 86 106
234 257 143 145 216 176 252 242 221 218 97 298 41 298 293 286 299 262 234 216 215 214 199 192 187 185 185 189 184 179 177 176 168 151 143 141 143 159 219 232 274 16 59 100
257 222 162 219 233 185 223 58 111 113 151 346 8 204 291 320 291 275 248 227 221 211 198 195 196 194 189 180 175 173 167 174 170 160 161 154 160 180 181 145 85 29 25 69
244 242 198 215 235 154 127 66 53 49 71 333 260 185 287 268 251 273 258 231 221 210 200 197 195 180 174 170 172 168 165 176 166 164 166 168 173 174 165 177 174 263 327 341
321 310 265 169 104 37 79 80 22 359 7 266 276 211 254 265 254 246 253 239 216 198 191 189 187 184 182 182 184 180 178 192 189 176 182 190 192 186 195 205 202 202 223 243
216 285 263 199 174 178 155 139 156 211 243 284 316 244 259 278 283 269 250 224 196 187 190 195 198 192 192 194 190 189 194 201 198 194 206 206 204 199 211 211 205 207 216 221
188 253 287 240 182 140 136 162 163 143 186 280 287 291 306 313 341 3 16 68 206 206 201 202 199 195 194 196 199 199 201 204 205 206 207 208 207 209 216 218 212 215 222 219
170 236 286 296 82 50 140 142 106 124 165 274 296 287 268 280 289 306 308 281 259 225 210 209 204 200 194 195 198 199 205 206 208 206 208 211 213 213 217 212 218 223 227 214
155 181 295 25 180 189 109 112 118 126 157 172 264 274 240 236 245 253 262 261 257 236 218 211 210 202 191 184 186 196 206 207 211 210 205 207 215 212 211 217 224 222 221 204
147 137 234 258 260 188 171 174 152 162 217 184 199 266 281 256 254 247 259 266 261 239 221 209 205 191 187 190 192 197 203 209 216 204 195 208 218 207 215 231 229 220 216 207
138 122 58 341 344 349 187 177 160 136 131 166 191 260 307 331 299 271 255 262 265 234 204 186 181 189 201 203 199 197 203 212 214 195 190 208 219 218 226 232 231 219 206 205
129 135 177 207 226 220 232 205 166 146 172 210 222 247 286 294 285 284 271 264 257 215 200 190 193 196 200 199 197 193 206 211 207 197 196 212 223 223 228 232 225 216 198 192
119 174 221 241 246 221 226 229 195 194 199 205 232 235 256 258 251 257 254 261 264 238 211 207 202 198 201 203 201 194 201 207 203 199 210 224 226 224 223 224 222 214 204 206
111 166 195 278 265 235 250 251 225 222 214 217 237 259 255 256 236 256 252 232 235 239 230 221 214 203 209 213 210 206 215 216 194 199 218 223 216 217 221 224 212 200 212 219
142 140 147 256 291 333 265 237 215 219 216 197 221 238 239 237 234 230 232 226 227 233 230 226 222 219 220 214 204 207 215 209 197 210 217 214 208 213 225 223 205 208 214 209
155 142 153 207 45 242 247 239 203 215 243 223 225 229 219 223 232 237 223 214 224 234 236 231 221 223 223 209 197 191 173 177 192 210 221 216 204 210 214 201 209 219 211 206
170 152 148 157 222 270 289 258 194 198 259 226 214 225 212 184 47 309 241 215 224 232 230 225 216 209 193 187 184 156 162 177 188 224 237 227 206 202 197 199 214 213 196 205
99 128 143 158 195 239 248 250 202 144 271 247 204 205 192 142 170 261 245 227 239 246 233 204 167 143 160 191 164 157 183 189 227 236 235 231 212 201 201 207 207 199 191 205
118 123 168 189 222 254 249 248 131 173 248 240 199 200 187 195 215 233 219 217 216 219 215 157 138 149 195 182 158 168 194 227 240 239 223 216 212 207 207 202 192 179 177 175
183 179 190 170 205 250 241 147 180 223 259 215 213 211 205 220 236 240 210 209 197 183 148 146 143 155 171 167 163 184 226 247 253 206 183 197 206 205 193 179 179 169 164 168
202 195 192 194 215 243 237 219 246 210 220 233 223 244 199 213 234 227 215 206 198 194 178 163 154 149 187 193 181 201 240 234 161 160 193 211 200 199 185 174 171 164 167 179
248 190 180 240 261 260 261 258 273 241 234 244 226 209 186 218 232 229 214 202 198 196 183 161 149 162 213 228 214 215 218 176 159 178 206 209 188 189 188 182 179 178 188 194
218 178 202 248 269 293 280 251 251 255 261 306 306 234 208 204 232 218 214 210 204 198 181 166 174 190 216 214 221 229 185 159 178 197 200 201 195 191 194 195 198 198 207 201
205 197 202 234 232 223 250 255 241 233 241 233 242 268 259 220 222 221 218 217 203 194 188 182 186 194 213 208 217 224 190 176 175 189 201 201 192 189 186 191 218 233 224 226
Height
1528 1533 1537 1536 1535 1536 1539 1542 1544 1539 1533 1536 1538 1537 1533 1532 1533 1533 1533 1534 1535 1536 1538 1540 1541 1542 1543 1544 1545 1546 1546 1546 1546 1547 1547 1547 1547 1547 1547 1547 1547 1547 1547 1547
1533 1535 1530 1529 1531 1534 1538 1542 1542 1537 1532 1535 1538 1537 1532 1530 1530 1530 1530 1531 1533 1535 1536 1538 1540 1541 1542 1543 1544 1545 1546 1546 1546 1546 1547 1547 1547 1547 1547 1547 1547 1547 1547 1547
1533 1531 1527 1529 1532 1535 1537 1540 1539 1538 1535 1535 1538 1539 1533 1529 1528 1528 1528 1529 1531 1532 1534 1536 1538 1539 1541 1542 1543 1544 1545 1545 1546 1546 1547 1547 1547 1547 1547 1547 1547 1548 1548 1548
1530 1527 1527 1530 1532 1533 1539 1532 1533 1535 1541 1547 1542 1554 1537 1531 1529 1526 1526 1527 1528 1530 1532 1534 1536 1538 1539 1541 1543 1544 1544 1545 1545 1546 1546 1546 1546 1547 1547 1547 1547 1547 1547 1548
1530 1527 1528 1531 1529 1529 1532 1529 1532 1535 1541 1547 1546 1552 1544 1533 1531 1526 1524 1524 1525 1528 1530 1532 1534 1536 1538 1540 1542 1543 1543 1544 1545 1545 1546 1546 1546 1546 1547 1547 1547 1547 1547 1547
1527 1525 1525 1526 1525 1526 1528 1533 1537 1543 1548 1557 1548 1553 1549 1537 1529 1524 1522 1522 1523 1526 1528 1530 1533 1535 1537 1539 1540 1542 1542 1543 1544 1544 1545 1545 1545 1546 1546 1546 1546 1546 1546 1546
1531 1526 1523 1523 1527 1528 1531 1543 1558 1559 1565 1561 1547 1549 1545 1527 1523 1522 1520 1520 1521 1524 1526 1528 1530 1533 1535 1537 1539 1540 1541 1542 1543 1543 1543 1544 1544 1544 1545 1545 1545 1545 1545 1545
1539 1539 1525 1523 1526 1531 1533 1540 1558 1566 1568 1561 1549 1550 1536 1523 1520 1519 1519 1519 1520 1522 1524 1526 1528 1530 1533 1535 1537 1538 1539 1540 1541 1542 1542 1542 1542 1543 1543 1543 1544 1544 1544 1544
1539 1538 1524 1521 1522 1526 1534 1540 1541 1554 1557 1562 1555 1544 1531 1521 1520 1519 1519 1519 1520 1521 1522 1524 1526 1529 1531 1533 1535 1536 1537 1538 1539 1540 1540 1541 1541 1541 1541 1542 1542 1542 1542 1543
1530 1536 1526 1522 1522 1525 1528 1535 1547 1554 1561 1566 1556 1549 1542 1527 1523 1520 1519 1519 1519 1520 1521 1523 1525 1527 1529 1531 1533 1534 1536 1536 1537 1538 1538 1538 1539 1539 1539 1540 1540 1540 1540 1541
1527 1535 1531 1527 1528 1530 1533 1537 1543 1552 1554 1563 1563 1552 1527 1524 1521 1520 1519 1518 1518 1518 1519 1521 1523 1524 1527 1529 1530 1532 1533 1534 1535 1535 1536 1536 1537 1537 1537 1537 1537 1538 1538 1538
1527 1535 1539 1531 1524 1523 1526 1531 1539 1549 1552 1556 1559 1550 1521 1520 1518 1518 1517 1517 1517 1517 1518 1519 1521 1522 1524 1526 1527 1529 1530 1531 1532 1533 1533 1534 1534 1535 1535 1535 1535 1535 1535 1536
1526 1535 1543 1540 1536 1528 1527 1528 1532 1539 1548 1556 1558 1544 1520 1518 1517 1516 1516 1516 1516 1516 1517 1518 1519 1520 1522 1523 1525 1526 1528 1529 1530 1530 1531 1532 1532 1532 1532 1533 1533 1533 1533 1533
1521 1531 1538 1542 1537 1530 1529 1528 1530 1536 1546 1550 1545 1535 1522 1519 1517 1515 1514 1514 1514 1514 1515 1515 1516 1518 1519 1521 1522 1523 1525 1526 1527 1528 1528 1529 1529 1530 1530 1530 1530 1531 1531 1531
1520 1530 1529 1528 1525 1525 1525 1525 1527 1530 1532 1536 1531 1529 1520 1516 1515 1513 1513 1513 1512 1512 1513 1513 1514 1515 1517 1518 1519 1520 1522 1523 1524 1525 1525 1526 1526 1527 1527 1528 1528 1528 1529 1529
1521 1526 1527 1527 1523 1524 1525 1522 1523 1523 1523 1525 1524 1522 1513 1512 1512 1511 1511 1510 1510 1510 1511 1511 1512 1513 1514 1515 1516 1517 1519 1520 1521 1522 1522 1523 1523 1524 1524 1525 1525 1526 1526 1527
1524 1526 1531 1534 1526 1523 1527 1519 1518 1518 1516 1517 1520 1514 1510 1510 1509 1508 1508 1508 1508 1508 1509 1509 1510 1510 1511 1512 1513 1514 1515 1517 1518 1518 1519 1519 1520 1520 1521 1522 1522 1523 1523 1524
1522 1527 1533 1535 1530 1534 1520 1509 1509 1511 1510 1509 1508 1507 1506 1506 1506 1506 1506 1506 1506 1506 1507 1507 1508 1508 1509 1510 1510 1512 1513 1513 1514 1514 1515 1515 1516 1517 1517 1518 1518 1519 1520 1520
1516 1523 1532 1536 1534 1527 1515 1507 1507 1509 1508 1503 1504 1503 1504 1504 1505 1504 1504 1504 1504 1504 1505 1505 1506 1506 1506 1507 1508 1508 1509 1510 1510 1511 1511 1511 1512 1512 1513 1514 1515 1515 1516 1517
1516 1519 1529 1534 1531 1529 1513 1502 1501 1505 1509 1499 1499 1500 1501 1503 1507 1503 1501 1501 1501 1502 1502 1503 1503 1504 1504 1504 1505 1505 1505 1506 1506 1507 1507 1508 1508 1509 1509 1510 1511 1512 1513 1513
1521 1524 1527 1530 1529 1519 1504 1500 1501 1513 1507 1497 1496 1497 1498 1499 1499 1499 1498 1499 1499 1500 1500 1500 1501 1501 1501 1501 1502 1502 1502 1502 1503 1504 1504 1504 1505 1505 1506 1507 1508 1509 1509 1510
1516 1521 1524 1526 1527 1518 1498 1499 1502 1500 1495 1494 1494 1495 1495 1495 1495 1496 1496 1496 1497 1497 1498 1498 1498 1498 1499 1499 1499 1499 1499 1500 1501 1501 1501 1501 1501 1502 1502 1503 1504 1505 1506 1506
1509 1508 1509 1511 1507 1498 1495 1495 1495 1495 1494 1494 1493 1493 1493 1493 1493 1493 1494 1494 1494 1495 1495 1496 1496 1496 1496 1496 1497 1497 1497 1497 1498 1498 1498 1498 1498 1499 1499 1500 1500 1501 1502 1502
1503 1501 1503 1504 1497 1494 1493 1493 1493 1493 1493 1492 1492 1492 1491 1491 1491 1491 1491 1492 1492 1492 1493 1493 1493 1494 1494 1494 1494 1494 1495 1495 1495 1494 1494 1494 1495 1495 1496 1496 1497 1498 1498 1498
1497 1499 1500 1499 1494 1491 1489 1489 1490 1490 1490 1490 1490 1490 1490 1490 1489 1489 1489 1489 1489 1490 1490 1491 1491 1491 1492 1492 1492 1492 1492 1492 1491 1491 1491 1491 1491 1492 1492 1493 1493 1494 1495 1495
1493 1494 1496 1493 1489 1489 1487 1487 1487 1487 1487 1487 1488 1487 1487 1488 1487 1486 1486 1487 1487 1487 1488 1488 1488 1489 1489 1489 1489 1489 1489 1488 1488 1488 1488 1488 1488 1488 1489 1489 1490 1490 1492 1492